Regional Weather Roundup
Issued by NWS

Home | Current Version | Previous Version | Text Only | Print | Product List | Glossary On
Versions: 1 2 3 4 5 6 7 8 9 10 11 12 13 14 15 16 17 18 19 20 21 22 23 24 25 26 27 28 29 30 31 32 33 34 35 36 37 38 39 40 41 42 43 44 45 46 47 48 49 50
000
ASUS43 KLSX 291459
RWRMO

WEATHER SUMMARY FOR MISSOURI
NATIONAL WEATHER SERVICE SPRINGFIELD MO
1000 AM CDT FRI MAY 29 2015

NOTE: "FAIR" INDICATES FEW OR NO CLOUDS BELOW 12,000 FEET WITH NO
       SIGNIFICANT WEATHER AND/OR OBSTRUCTIONS TO VISIBILITY.
       CURRENT SKY AND/OR WEATHER CONDITIONS ARE NOT AVAILABLE FOR
       CHILLICOTHE AND FARMINGTON.

MOZ001>031-035>038-043-044-053-054-291600-
...NORTHERN AND WESTERN MISSOURI...

CITY           SKY/WX    TMP DP  RH WIND       PRES   REMARKS
KANSAS CTY INT LGT RAIN  66  63  90 SW14G26   29.98R
KANSAS C DTWN  CLOUDY    69  62  78 SW9       29.98R
LEE`S SUMMIT   CLOUDY    68  62  81 S12       30.00R
ST JOSEPH      LGT RAIN  67  64  90 SW7       29.98R
CHILLICOTHE      N/A     71  65  81 CALM      29.97F
KIRKSVILLE     CLOUDY    70  67  90 VRB7      30.00S

$$
MOZ066>068-077>081-088>096-101>105-291600-
...SOUTHWEST MISSOURI...

CITY           SKY/WX    TMP DP  RH WIND       PRES   REMARKS
SPRINGFIELD    RAIN      67  65  93 S7        30.07R FOG
JOPLIN         RAIN      67  65  93 NE6       30.07R FOG

$$
MOZ032>034-039>042-045>050-055>058-069>072-291600-
...CENTRAL MISSOURI...

CITY           SKY/WX    TMP DP  RH WIND       PRES   REMARKS
COLUMBIA       CLOUDY    70  65  84 SW15G24   30.03F
JEFFERSON CITY CLOUDY    71  65  81 W9        30.03S
ROLLA          CLOUDY    70  64  81 S8        30.05R
SEDALIA        LGT RAIN  68  65  90 SW12      30.04S
OSAGE BEACH    CLOUDY    70  64  83 W9        30.06R

$$
MOZ051-052-059>065-291600-
...EAST CENTRAL MISSOURI...

CITY           SKY/WX    TMP DP  RH WIND       PRES   REMARKS
ST LOUIS INTL  PTSUNNY   80  66  62 S8        30.05R
SPIRIT OF STL  MOSUNNY   79  69  71 SW8       30.03R
ST CHARLES     CLOUDY    76  66  71 SW9       30.03S

$$
MOZ072>076-082>087-097>100-106>115-291600-
...SOUTH CENTRAL AND SOUTHEAST MISSOURI...

CITY           SKY/WX    TMP DP  RH WIND       PRES   REMARKS
CAPE GIRARDEAU MOSUNNY   78  70  76 S8        30.09S
FARMINGTON     MOSUNNY   75  68  78 S15       30.11S
POPLAR BLUFF   MOSUNNY   77  69  76 S7        30.07S
WEST PLAINS    SUNNY     75  66  73 SW10G18   30.08F

$$


USA.gov is the U.S. government's official web portal to all federal, state and local government web resources and services.